Terminal Aerodrome Forecast
Issued by NWS Green Bay, WI

Home | Current Version | Previous Version | Text Only | Print | Product List | Glossary Off
Versions: 1 2 3 4 5 6 7 8 9 10 11 12 13 14 15 16 17 18 19 20 21 22 23 24 25 26 27 28 29 30 31 32

000
FTUS43 KGRB 250520
TAFGRB
TAF
KGRB 250520Z 2506/2606 13008KT 4SM -SHRA BR BKN005 OVC010
      WS012/21040KT
     FM251200 16013KT 5SM BR VCSH BKN006 OVC010
      TEMPO 2512/2516 3SM SHRA BKN015
     FM251800 23017G28KT P6SM BKN025
     FM260100 21010KT P6SM VCSH BKN035=

USA.gov is the U.S. government's official web portal to all federal, state and local government web resources and services.